Location: DARK SKY Beskydy - Park tmavé oblohy, www.darkskybeskydy.cz
(49.4926°N, 18.5016°E)
Time: 04:24:34
(UTC+01:00)

N. Korean satellite - Pass Details

Date: 13 December 2022
Orbit: 407 x 441 km, 97.3° (Epoch: 05 February)

Event Time Altitude Azimuth Distance (km) Brightness Sun altitude
Rises 06:18:17 0° 358° (N) 2,492 9.9 -11.5°
Reaches altitude 10° 06:20:51 10° 338° (NNW) 1,601 8.8 -11.1°
Maximum altitude 06:23:08 17° 296° (WNW) 1,222 7.9 -10.8°
Drops below altitude 10° 06:25:22 10° 255° (WSW) 1,571 8.7 -10.5°
Sets 06:27:52 0° 234° (SW) 2,423 9.8 -10.1°
